STARLINK-3749, 52313

Orbit data source: Space-Track

STARLINK-3749, 52313 is a payload satellite owned by SpaceX/Seattle (US) in LEO that was launched on Thu, 21 Apr 2022 UTC via an FALCON 9 launch vehicle from the Air Force Eastern Test Range (AFETR). Payload-class satellites include a variety of spacecraft equipped with specific instruments for various scientific and technological missions. These include communications satellites like Starlink; space stations such as the ISS; scientific satellites like the Hubble; Earth observation satellites from companies like Planet Labs, Umbra, and HawkEye 360; GPS; miniature CubeSats for education and research; and military/defense satellites.

Loading next visibility...
Identifier
52313, 2022-041BE
Orbit
LEO
Country
Flag of USUS
Related business
Manufacturer
SpaceX/Seattle
Mission
Operational Commercial Communications
Bus & Motor
STARLINK, Unknown motor
Mass
297 kg wet, ~275 kg dry
Launch date (UTC)
2022-04-21 (4 years ago)
Launch vehicle
FALCON 9
Launch site
Air Force Eastern Test Range (AFETR)
Object type
Payload
Rocket body
Debris
Shape & HBR
Box + 1 Pan, 10.1 m
Radar Cross Section
11.087 m², Large (>1 m²)

Expand to show TLE details & history
Last TLE update: 18 hours ago

TLE from 18 hours ago
0 STARLINK-3749
1 52313U 22041BE  26175.17260236 -.00001346  00000-0 -66495-4 0  9991
2 52313  53.1597 330.9597 0001364  92.9813 267.1335 15.08825298231942
Epoch: 2026-06-24T04:08Z
TLE epoch observation values (Epoch: 2026-06-24T04:08:32.843Z)
Latitude
-0.00001°
Longitude
-3.51078°
Altitude
540.727 km
Speed
7.593 km/s
True Right ascension
22h 03m 50s
True Declination
0° 00' 00"
Sunlit
Object was in full shadow at epoch
Visualization orbit readout
Latitude
Unknown
Longitude
Unknown
Altitude
Unknown
Speed
Unknown
Apparent Right ascension
Unknown
Apparent Declination
Unknown
Sunlit
N/A
Visualization observer readout
Local Sidereal Time
08:57:10
Azimuth
Unknown
Elevation
Unknown
Doppler factor
Unknown
Orbital elements
Apogee altitude
540.986 km
Perigee altitude
539.099 km
Semi-major axis
6,918.179 km
Eccentricity
0.00014
Inclination
53.1597°
RAAN
330.9597°
Arg. of periapsis
92.9813°
True anomaly
267.11789°
Mean anomaly
267.1335°
Eccentric anomaly
267.12569°
Mean motion
3.77186 °/min
Orbital period
95.44 mins
BSTAR
-0.000066495
Loading maneuver chart data...
Computing Atmospheric mass density...

Documentation

Showing up to 5 results
|